www.pogodaiklimat.ru

Погода и климат >> Архив погоды >> Россия >> Чукотка >> Бухта Амбарчик


ПОГОДА в Бухте Амбарчик

  • Прогноз погоды в Бухте Амбарчик
  • Монитор погоды в Бухте Амбарчик
  • Климат города

АРХИВ ПОГОДЫ в Бухте Амбарчик

Время (UTC), дата Ветер
(напр.,м/с)
 
Видим.   Явления Облачность Т
(С)
Тd
(С)
f
(%)
Тe
(С)
Тes
(С)
Комфортность P
(гПа)
Po
(гПа)
Тmin
(С)
Tmax
(С)
R
(мм)
R24
(мм)
S
(см)
06 17.05 С 1
{7}
20 км 9/9 300 м
[St]
-3.0 -5.8 81 -5 -5 1011.5 1008.5
09 17.05 В 5
{6}
20 км 9/9 300 м
[St]
-3.7 -5.5 87 -11 -11 1011.2 1008.2 -2.3
12 17.05 В 8-10
{11}
20 км 9/8 300 м
[St Ac trans]
-4.3 -5.4 92 -13 -13 1009.8 1006.8
15 17.05 В 6
{11}
20 км 10/8 300 м
[St Ac und]
-3.1 -3.8 95 -11 -11 1007.6 1004.6
18 17.05 В 3
{8}
20 км 10/3 600 м
[Sc Ac und]
-1.7 -3.0 91 -7 -7 1006.4 1003.5
21 17.05 СВ 2
{4}
20 км 10/0
[Ac und]
+0.4 -1.2 89 -3 -2 1005.3 1002.4 -4.3 6
00 18.05 В 1
{6}
20 км 8/0
[Ac trans Ci fib]
+6.7 +0.6 65 +6 +12 1004.7 1001.8
03 18.05 В 1
{6}
20 км 8/0
[Ac trans Ci fib]
+6.7 +0.6 65 +6 +12 1004.7 1001.8
06 18.05 Ю 4
{6}
20 км 5/0
[Ac trans Ci fib]
+9.0 +1.0 57 +6 +9 1004.1 1001.3
09 18.05 ЮВ 2
{4}
20 км 3/0
[Ci fib]
+7.9 +1.0 62 +6 +7 1003.7 1000.9 +9.8
12 18.05 ЮВ 7
{9}
20 км 3/0
[Ci fib]
+4.8 +0.2 72 -1 -1 1003.9 1001.0
15 18.05 Ю 6
{9}
20 км 3/0
[Ci fib]
+5.2 -0.3 68 0 0 1003.9 1001.0
18 18.05 Ю 6
{8}
20 км 3/0
[Ci fib]
+4.3 -0.3 72 -1 -0 1003.9 1001.0
21 18.05 В 3
{8}
20 км 3/0
[Ci fib]
+6.1 -0.4 63 +3 +7 1004.0 1001.1 +3.1 5
00 19.05 Ю 5
{6}
20 км 3/0
[Ci fib]
+6.3 +0.2 65 +2 +7 1003.3 1000.4
03 19.05 З 1
{6}
20 км 3/0
[Ci fib]
+5.3 +0.6 72 +4 +14 опасность
простуды
1003.0 1000.1
06 19.05 В 1
{5}
20 км 3/0
[Ci fib]
+6.8 +1.3 68 +6 +11 1002.5 999.6
09 19.05 ЮВ 2
{5}
20 км 3/0
[Ci fib]
+5.6 +0.4 69 +3 +4 1002.4 999.5 +10.0
12 19.05 Ю 6
{9}
20 км 3/0
[Ci fib]
+4.0 -0.4 73 -1 -1 1002.4 999.5
15 19.05 Ю 7
{9}
20 км 3/0
[Ci fib]
+4.0 -0.3 74 -2 -2 1001.9 999.0
18 19.05 Ю 7
{10}
20 км 3/0
[Ci fib]
+4.9 +0.3 72 -0 -0 1002.2 999.3
21 19.05 Ю 4
{5}
20 км 3/0
[Ci fib]
+7.7 +1.7 66 +5 +8 1002.3 999.5 +3.3 5
00 20.05 СВ 2
{6}
20 км 3/0
[Ci fib]
+2.5 +0.2 85 -1 +8 1002.8 999.9
03 20.05 В 3
{4}
20 км 3/0
[Ci fib]
+5.9 +1.5 73 +3 +10 1001.9 999.0
06 20.05 В 3
{5}
20 км 4/3 600 м
[Sc Ci fib]
+4.1 +1.0 80 +1 +3 1001.9 999.0
09 20.05 ЮВ 5
{5}
20 км 4/3 600 м
[Sc Ci fib]
+6.3 +1.5 71 +2 +3 1002.5 999.6 +8.9
12 20.05 Ю 7
{9}
20 км 6/3 600 м
[Sc Ci fib]
+4.6 0.0 72 -1 -1 1003.3 1000.4
15 20.05 ЮВ 3
{8}
20 км 3/1 600 м
[Sc Ci fib]
+3.2 -0.4 77 -1 -1 1003.5 1000.6
18 20.05 В 4
{6}
10 км 3/1 100 м
[St Ci fib]
+0.1 -1.0 92 -5 -5 1003.4 1000.5
21 20.05 В 6
{7}
10 км 3/1 100 м
[St Ci fib]
+0.7 -0.6 91 -6 -4 1003.3 1000.4 -0.3 2
00 21.05 В 7-10
{10}
20 км 3/0
[Ci fib]
+3.9 +0.6 79 -2 +1 1003.0 1000.1
03 21.05 В 8-10
{12}
20 км 3/0
[Ci fib]
+2.8 +0.6 85 -4 -2 1002.8 999.9
06 21.05 В 9-13
{17}
20 км 3/1 300 м
[St Ci fib]
+1.6 -0.2 88 -6 -5 1002.7 999.8
09 21.05 В 12-16
{18}
20 км 3/1 300 м
[St Ci fib]
+0.1 -1.2 91 -9 -9 1003.2 1000.3 +5.0
12 21.05 В 12-15
{17}
10 км 4/3 300 м
[St Ci fib]
-1.2 -2.0 94 -11 -11 1004.2 1001.3
15 21.05 В 12-15
{16}
10 км 4/3 200 м
[St Ci fib]
-2.2 -2.9 95 -12 -12 1005.6 1002.7
18 21.05 В 12-15
{16}
10 км 4/3 200 м
[St Ci fib]
-2.3 -3.1 94 -12 -12 1006.6 1003.7
21 21.05 В 10-15
{16}
20 км 4/3 200 м
[St Ci fib]
-1.0 -2.6 89 -10 -9 1007.0 1004.1 -2.6 0
00 22.05 В 12-15
{16}
20 км 4/3 200 м
[St Ci fib]
-0.4 -2.0 89 -9 -9 1007.5 1004.6
03 22.05 В 12-15
{17}
20 км 4/3 200 м
[St Ci fib]
-0.3 -1.8 90 -9 -9 1008.1 1005.2
06 22.05 В 12-15
{18}
20 км 3/1 200 м
[St Ci fib]
-0.4 -1.8 90 -9 -9 1008.4 1005.5
09 22.05 В 11-15
{16}
20 км 3/1 200 м
[St Ci fib]
-1.5 -2.6 92 -11 -11 1009.7 1006.8 -0.1
12 22.05 В 12-16
{17}
10 км 3/3 200 м
[St]
-3.2 -4.5 91 -13 -13 1010.7 1007.7
15 22.05 В 12-15
{17}
10 км 9/9 200 м
[St]
-3.8 -4.9 92 -14 -14 1011.6 1008.6
18 22.05 В 12-15
{16}
20 км 6/4 200 м
[St Ci fib]
-4.1 -5.7 89 -14 -14 1011.6 1008.6
21 22.05 В 12-16
{17}
20 км 4/3 200 м
[St Ci fib]
-3.7 -6.3 82 -14 -14 1012.7 1009.7 -4.4
00 23.05 В 14-18
{19}
20 км 4/3 300 м
[St Ci fib]
-2.4 -4.9 83 -13 -13 1012.6 1009.7
03 23.05 В 13-17
{21}
20 км 4/3 300 м
[St Ci fib]
-1.7 -4.5 81 -11 -11 1013.2 1010.3
06 23.05 В 13-18
{21}
20 км 6/4 600 м
[Sc Ci fib]
-1.8 -4.5 82 -11 -11 1013.5 1010.6
09 23.05 В 12-17
{18}
20 км 8/4 300 м
[Sc Ci fib]
-2.9 -5.1 85 -13 -13 1014.3 1011.3 -1.6
12 23.05 В 11-15
{20}
20 км 10/10 300 м
[Sc]
-3.2 -4.9 88 -13 -13 1015.3 1012.3
15 23.05 В 12-15
{16}
20 км 8/6 200 м
[St Ac trans Ci fib]
-4.1 -5.5 90 -14 -14 1015.0 1012.0
18 23.05 В 6
{15}
20 км 8/6 200 м
[St Ac trans Ci fib]
-3.7 -5.2 89 -11 -11 1016.1 1013.1
21 23.05 В 9-12
{13}
20 км 6/4 200 м
[St Ci fib]
-2.7 -4.7 86 -11 -11 1016.0 1013.1 -4.4
00 24.05 В 10-13
{14}
20 км 6/3 300 м
[St Ci fib]
-1.6 -4.0 84 -10 -10 1015.7 1012.8
03 24.05 В 10-12
{14}
20 км 6/3 300 м
[St Cc]
-1.0 -3.8 81 -9 -9 1015.4 1012.5

 

Местоположение метеостанции Бухта Амбарчик (Чукотка, Россия): широта 69.62 долгота 162.30 высота над уровнем моря 23 м.

В архиве по умолчанию представлена погода в Бухте Амбарчик за последнюю неделю. Архивные данные за месяц целиком и за предыдущие месяцы, начиная с января 2011 года, Вы можете получить, выбрав интересующий диапазон дат из раскрывающегося списка и нажав кнопку "Ввод!".

Внимание! Время в таблицах - всемирное. Для получения местного времени необходимо прибавить поправку, которая в Бухте Амбарчик равна 12 ч.

Смотрите также архив погоды в соседних городах и на ближайших метеорологических станциях:

Погода в Черском (Якутия, Россия) (107 км)
Погода в Анюйске (Чукотка, Россия) (145 км)
Погода в Раучуе (Чукотка, Россия) (164 км)
Погода в Константиновской (Чукотка, Россия) (170 км)
Погода в Колымской (Якутия, Россия) (177 км)
Погода на Островном (Чукотка, Россия) (182 км)
Погода на Айон Острове (Чукотка, Россия) (218 км)
Погода в Билибино (Чукотка, Россия) (240 км)
Погода в Певеке (Чукотка, Россия) (305 км)
Погода в Андрюшкино (Якутия, Россия) (309 км)

Пояснения к столбцам:

Ветер - указаны скорость ветра в м/с - средняя за 10 мин, порывы в срок и между сроками (в фигурных скобках) и направление, откуда дует ветер: С - северный, СВ - северо-восточный, В - восточный, ЮВ - юго-восточный, Ю - южный, ЮЗ - юго-западный, З - западный, СЗ - северо-западный.
Видимость - горизонтальная дальность видимости в метрах или километрах. При видимости от 1 до 10 км при отсутствии осадков обычно наблюдается дымка, при ухудшении видимости до 1 км и менее - туман. В сухую погоду видимость может ухудшаться дымом, пылью или мглою.
Явления - указаны атмосферные явления, наблюдавшиеся в срок или в последний час перед сроком; фигурными скобками обозначены явления, наблюдавшиеся между сроками (за 1-3 часа до срока); квадратными скобками обозначены град или гололедные отложения с указанием их диаметра в мм.
Облачность - указаны через наклонную черту общая и нижняя облачность в баллах и высота нижней границы облаков в метрах; квадратными скобками обозначены формы облаков: Ci - перистые, Cs - перисто-слоистые, Cc - перисто-кучевые, Ac - высококучевые, As - высокослоистые, Sc - слоисто-кучевые, Ns - слоисто-дождевые, Cu - кучевые, Cb - кучево-дождевые. Подробнее классификацию облаков см. в Атласе облаков (PDF).
T - Температура воздуха - температура, измеренная на высоте 2 м над землей.
Td - Температура точки росы - температура, при понижении до которой содержащийся в воздухе водяной пар достигнет насыщения.
f - Относительная влажность воздуха - влажноcть воздуха, измеренная на высоте 2 м над землей.
Te - Эффективная температура - температура, которую ощущает одетый по сезону человек в тени. Характеристика душности погоды. При расчете учитывается влияние влажности воздуха и скорости ветра на теплоощущения человека.
Tes - Эффективная температура на солнце - температура, которую ощущает человек, с поправкой на солнечный нагрев. Характеристика знойности погоды. Зависит от высоты солнца над горизонтом, облачности и скорости ветра. Ночью, в пасмурную погоду, а также при ветре 12 м/с и более поправка равна нулю.
P - Атмосферное давление - приведенное к уровню моря атмосферное давление.
Po - Атмосферное давление - измеренное на уровне метеостанции атмосферное давление.
Tmin - Минимальная температура - минимум температуры воздуха на высоте 2 м над землей.
Tmax - Максимальная температура - максимум температуры воздуха на высоте 2 м над землей.
R - Количество осадков - Количество выпавших осадков за период времени, мм. При наведении курсора мыши на число - период времени, за который выпало указанное количество осадков.
R24 - Количество осадков - Количество выпавших осадков за 24 часа, мм.
S - Снежный покров - Высота снежного покрова, см. При наведении курсора мыши на число - состояние снежного покрова и степень покрытия местности в баллах.